| time (UTC) | temp F | wind direction | speed knots | gust knots | rain 1hr in | rain 24hr in | rain mn in | humidity % | barometer mb |
| 20260503192515 | 79 | 154 | 3.5 | 0.0 | 0.00 | 0.00 | 0.00 | 35 | 1021.0 |
| 20260503192057 | 79 | 140 | 4.3 | 0.0 | 0.00 | 0.00 | 0.00 | 37 | 1021.0 |
| 20260503191610 | 78 | 142 | 5.2 | 0.0 | 0.00 | 0.00 | 0.00 | 34 | 1021.1 |
| 20260503191043 | 79 | 136 | 4.3 | 0.0 | 0.00 | 0.00 | 0.00 | 36 | 1021.1 |
| 20260503190520 | 79 | 180 | 3.5 | 0.0 | 0.00 | 0.00 | 0.00 | 36 | 1021.2 |
| 20260503190018 | 78 | 130 | 4.3 | 0.0 | 0.00 | 0.00 | 0.00 | 36 | 1021.3 |
| 20260503185558 | 78 | 115 | 6.1 | 0.0 | 0.00 | 0.00 | 0.00 | 35 | 1021.4 |
| 20260503185033 | 78 | 157 | 5.2 | 0.0 | 0.00 | 0.00 | 0.00 | 33 | 1021.5 |
| 20260503184536 | 78 | 167 | 4.3 | 0.0 | 0.00 | 0.00 | 0.00 | 35 | 1021.7 |
| 20260503184008 | 78 | 169 | 4.3 | 0.0 | 0.00 | 0.00 | 0.00 | 39 | 1021.6 |
| 20260503183544 | 78 | 126 | 4.3 | 0.0 | 0.00 | 0.00 | 0.00 | 37 | 1021.7 |
| 20260503183050 | 79 | 155 | 3.5 | 0.0 | 0.00 | 0.00 | 0.00 | 38 | 1021.7 |
| 20260503182526 | 78 | 186 | 3.5 | 0.0 | 0.00 | 0.00 | 0.00 | 38 | 1021.9 |
| 20260503182105 | 78 | 296 | 4.3 | 0.0 | 0.00 | 0.00 | 0.00 | 38 | 1022.0 |
| 20260503181604 | 78 | 127 | 5.2 | 0.0 | 0.00 | 0.00 | 0.00 | 35 | 1022.1 |
| 20260503181028 | 78 | 143 | 4.3 | 0.0 | 0.00 | 0.00 | 0.00 | 37 | 1022.2 |
| 20260503180501 | 78 | 165 | 4.3 | 0.0 | 0.00 | 0.00 | 0.00 | 35 | 1022.4 |
| 20260503180011 | 78 | 160 | 3.5 | 0.0 | 0.00 | 0.00 | 0.00 | 37 | 1022.5 |
| 20260503175541 | 78 | 147 | 3.5 | 0.0 | 0.00 | 0.00 | 0.00 | 38 | 1022.5 |
| 20260503175017 | 77 | 126 | 3.5 | 0.0 | 0.00 | 0.00 | 0.00 | 38 | 1022.6 |
| 20260503174523 | 77 | 139 | 2.6 | 0.0 | 0.00 | 0.00 | 0.00 | 37 | 1022.7 |
| 20260503174101 | 77 | 140 | 3.5 | 0.0 | 0.00 | 0.00 | 0.00 | 38 | 1022.7 |
| 20260503173538 | 77 | 144 | 3.5 | 0.0 | 0.00 | 0.00 | 0.00 | 35 | 1022.8 |
| 20260503173053 | 77 | 145 | 2.6 | 0.0 | 0.00 | 0.00 | 0.00 | 37 | 1022.8 |
| 20260503172511 | 77 | 165 | 2.6 | 0.0 | 0.00 | 0.00 | 0.00 | 38 | 1022.9 |
| 20260503172048 | 77 | 215 | 1.7 | 0.0 | 0.00 | 0.00 | 0.00 | 44 | 1022.9 |
| 20260503171538 | 77 | 144 | 1.7 | 0.0 | 0.00 | 0.00 | 0.00 | 42 | 1023.0 |
| 20260503171007 | 77 | 223 | 0.9 | 0.0 | 0.00 | 0.00 | 0.00 | 44 | 1023.1 |
| 20260503170544 | 76 | 248 | 0.9 | 0.0 | 0.00 | 0.00 | 0.00 | 42 | 1023.1 |
| 20260503151008 | 71 | 169 | 1.7 | 0.0 | 0.00 | 0.00 | 0.00 | 55 | 1023.7 |
| 20260503150548 | 71 | 263 | 1.7 | 0.0 | 0.00 | 0.00 | 0.00 | 58 | 1023.8 |
| 20260503131040 | 55 | 71 | 0.9 | 0.0 | 0.00 | 0.00 | 0.00 | 91 | 1023.5 |
| 20260503130508 | 54 | 71 | 0.0 | 0.0 | 0.00 | 0.00 | 0.00 | 92 | 1023.4 |
| 20260503130104 | 53 | 71 | 0.0 | 0.0 | 0.00 | 0.00 | 0.00 | 92 | 1023.4 |
| 20260503110512 | 49 | 71 | 0.0 | 0.0 | 0.00 | 0.00 | 0.00 | 92 | 1022.3 |
| 20260503100109 | 49 | 71 | 0.0 | 0.0 | 0.00 | 0.00 | 0.00 | 92 | 1022.1 |
| 20260503090105 | 50 | 71 | 0.0 | 0.0 | 0.00 | 0.00 | 0.00 | 92 | 1022.0 |
| 20260503081534 | 50 | 71 | 0.0 | 0.0 | 0.00 | 0.00 | 0.00 | 92 | 1022.0 |
| 20260503081003 | 50 | 71 | 0.0 | 0.0 | 0.00 | 0.00 | 0.00 | 92 | 1022.0 |
| 20260503080544 | 50 | 71 | 0.0 | 0.0 | 0.00 | 0.00 | 0.00 | 92 | 1022.0 |
| 20260503072527 | 51 | 71 | 0.0 | 0.0 | 0.00 | 0.00 | 0.00 | 92 | 1022.3 |
| 20260503072103 | 51 | 71 | 0.0 | 0.0 | 0.00 | 0.00 | 0.00 | 92 | 1022.3 |
| 20260503071558 | 51 | 71 | 0.0 | 0.0 | 0.00 | 0.00 | 0.00 | 92 | 1022.4 |
| 20260503071025 | 51 | 71 | 0.0 | 0.0 | 0.00 | 0.00 | 0.00 | 92 | 1022.3 |
| 20260503070604 | 51 | 71 | 0.0 | 0.0 | 0.00 | 0.00 | 0.00 | 92 | 1022.4 |
| 20260503060108 | 53 | 71 | 0.0 | 0.0 | 0.00 | 0.00 | 0.00 | 91 | 1022.5 |
| 20260503055005 | 53 | 71 | 0.0 | 0.0 | 0.00 | 0.00 | 0.00 | 91 | 1022.5 |
| 20260503054511 | 53 | 71 | 0.0 | 0.0 | 0.00 | 0.00 | 0.00 | 91 | 1022.6 |
| 20260503054050 | 53 | 71 | 0.0 | 0.0 | 0.00 | 0.00 | 0.00 | 91 | 1022.6 |
| 20260503053520 | 53 | 71 | 0.0 | 0.0 | 0.00 | 0.00 | 0.00 | 91 | 1022.7 |
| 20260503053024 | 53 | 71 | 0.0 | 0.0 | 0.00 | 0.00 | 0.00 | 91 | 1022.7 |
| 20260503052559 | 54 | 71 | 0.0 | 0.0 | 0.00 | 0.00 | 0.00 | 91 | 1022.8 |
| 20260503052027 | 54 | 71 | 0.0 | 0.0 | 0.00 | 0.00 | 0.00 | 91 | 1022.7 |
| 20260503051533 | 54 | 71 | 0.0 | 0.0 | 0.00 | 0.00 | 0.00 | 91 | 1022.7 |
| 20260503051008 | 54 | 71 | 0.0 | 0.0 | 0.00 | 0.00 | 0.00 | 90 | 1022.7 |
| 20260503050544 | 54 | 71 | 0.0 | 0.0 | 0.00 | 0.00 | 0.00 | 90 | 1022.6 |
| 20260503050056 | 54 | 71 | 0.0 | 0.0 | 0.00 | 0.00 | 0.00 | 90 | 1022.6 |
| 20260503045532 | 55 | 71 | 0.0 | 0.0 | 0.00 | 0.00 | 0.00 | 90 | 1022.6 |
| 20260503045002 | 55 | 71 | 0.0 | 0.0 | 0.00 | 0.00 | 0.00 | 90 | 1022.4 |
| 20260503044504 | 55 | 71 | 0.0 | 0.0 | 0.00 | 0.00 | 0.00 | 90 | 1022.5 |
| 20260503044041 | 55 | 71 | 0.0 | 0.0 | 0.00 | 0.00 | 0.00 | 90 | 1022.5 |
| 20260503043510 | 55 | 71 | 0.0 | 0.0 | 0.00 | 0.00 | 0.00 | 90 | 1022.6 |
| 20260503043019 | 55 | 71 | 0.0 | 0.0 | 0.00 | 0.00 | 0.00 | 90 | 1022.5 |
| 20260503042554 | 55 | 71 | 0.0 | 0.0 | 0.00 | 0.00 | 0.00 | 89 | 1022.4 |
| 20260503042025 | 56 | 71 | 0.0 | 0.0 | 0.00 | 0.00 | 0.00 | 89 | 1022.5 |
| 20260503041525 | 56 | 71 | 0.0 | 0.0 | 0.00 | 0.00 | 0.00 | 89 | 1022.4 |
| 20260503041105 | 56 | 71 | 0.0 | 0.0 | 0.00 | 0.00 | 0.00 | 89 | 1022.4 |
| 20260503040533 | 56 | 71 | 0.0 | 0.0 | 0.00 | 0.00 | 0.00 | 89 | 1022.4 |
| 20260503040038 | 56 | 71 | 0.0 | 0.0 | 0.00 | 0.00 | 0.00 | 89 | 1022.4 |
| 20260503035508 | 56 | 71 | 0.0 | 0.0 | 0.00 | 0.00 | 0.00 | 88 | 1022.3 |
| 20260503035047 | 57 | 71 | 0.0 | 0.0 | 0.00 | 0.00 | 0.00 | 88 | 1022.4 |
| 20260503034550 | 57 | 71 | 0.0 | 0.0 | 0.00 | 0.00 | 0.00 | 88 | 1022.4 |
| 20260503034021 | 57 | 71 | 0.0 | 0.0 | 0.00 | 0.00 | 0.00 | 87 | 1022.2 |
| 20260503033557 | 57 | 71 | 0.0 | 0.0 | 0.00 | 0.00 | 0.00 | 87 | 1022.1 |
| 20260503033110 | 58 | 71 | 0.0 | 0.0 | 0.00 | 0.00 | 0.00 | 87 | 1022.1 |
| 20260503032532 | 58 | 71 | 0.0 | 0.0 | 0.00 | 0.00 | 0.00 | 87 | 1022.1 |
| 20260503032008 | 58 | 71 | 0.0 | 0.0 | 0.00 | 0.00 | 0.00 | 86 | 1022.1 |
| 20260503031605 | 58 | 71 | 0.0 | 0.0 | 0.00 | 0.00 | 0.00 | 85 | 1022.1 |
| 20260503031034 | 58 | 71 | 0.0 | 0.0 | 0.00 | 0.00 | 0.00 | 84 | 1021.9 |
| 20260503030507 | 59 | 71 | 0.0 | 0.0 | 0.00 | 0.00 | 0.00 | 83 | 1022.0 |
| 20260503030100 | 59 | 71 | 0.0 | 0.0 | 0.00 | 0.00 | 0.00 | 82 | 1022.1 |
| 20260503025533 | 59 | 71 | 0.0 | 0.0 | 0.00 | 0.00 | 0.00 | 80 | 1022.0 |
| 20260503025009 | 59 | 71 | 0.0 | 0.0 | 0.00 | 0.00 | 0.00 | 79 | 1022.0 |
| 20260503024611 | 60 | 71 | 0.0 | 0.0 | 0.00 | 0.00 | 0.00 | 78 | 1021.9 |
| 20260503024037 | 60 | 71 | 0.0 | 0.0 | 0.00 | 0.00 | 0.00 | 77 | 1021.8 |
| 20260503023506 | 60 | 71 | 0.0 | 0.0 | 0.00 | 0.00 | 0.00 | 77 | 1021.6 |
| 20260503023035 | 61 | 71 | 0.0 | 0.0 | 0.00 | 0.00 | 0.00 | 76 | 1021.4 |
| 20260503022550 | 61 | 71 | 0.0 | 0.0 | 0.00 | 0.00 | 0.00 | 75 | 1021.3 |
| 20260503022025 | 61 | 71 | 0.0 | 0.0 | 0.00 | 0.00 | 0.00 | 74 | 1021.3 |
| 20260503021525 | 62 | 71 | 0.0 | 0.0 | 0.00 | 0.00 | 0.00 | 73 | 1021.3 |
| 20260503021002 | 62 | 71 | 0.0 | 0.0 | 0.00 | 0.00 | 0.00 | 72 | 1021.2 |
| 20260503020541 | 62 | 71 | 0.0 | 0.0 | 0.00 | 0.00 | 0.00 | 71 | 1021.3 |
| 20260503020045 | 63 | 71 | 0.0 | 0.0 | 0.00 | 0.00 | 0.00 | 70 | 1021.3 |
| 20260503015514 | 63 | 71 | 0.0 | 0.0 | 0.00 | 0.00 | 0.00 | 69 | 1021.3 |
| 20260503015050 | 64 | 71 | 0.0 | 0.0 | 0.00 | 0.00 | 0.00 | 69 | 1021.2 |
| 20260503014541 | 64 | 71 | 0.0 | 0.0 | 0.00 | 0.00 | 0.00 | 68 | 1021.1 |
| 20260503014017 | 65 | 71 | 0.0 | 0.0 | 0.00 | 0.00 | 0.00 | 66 | 1021.2 |
| 20260503013554 | 65 | 71 | 0.0 | 0.0 | 0.00 | 0.00 | 0.00 | 63 | 1021.2 |
| 20260503013116 | 66 | 71 | 0.0 | 0.0 | 0.00 | 0.00 | 0.00 | 63 | 1021.1 |
| 20260503012537 | 67 | 71 | 0.0 | 0.0 | 0.00 | 0.00 | 0.00 | 62 | 1021.0 |
| 20260503012007 | 68 | 71 | 0.0 | 0.0 | 0.00 | 0.00 | 0.00 | 61 | 1020.9 |
| 20260503011511 | 69 | 71 | 0.0 | 0.0 | 0.00 | 0.00 | 0.00 | 61 | 1020.9 |
| 20260503011050 | 70 | 71 | 0.0 | 0.0 | 0.00 | 0.00 | 0.00 | 61 | 1020.8 |
| 20260503010520 | 70 | 71 | 0.0 | 0.0 | 0.00 | 0.00 | 0.00 | 56 | 1020.9 |
| 20260503010032 | 71 | 71 | 0.0 | 0.0 | 0.00 | 0.00 | 0.00 | 52 | 1020.9 |
| 20260503005502 | 72 | 71 | 0.0 | 0.0 | 0.00 | 0.00 | 0.00 | 50 | 1020.9 |
| 20260503005037 | 73 | 71 | 0.0 | 0.0 | 0.00 | 0.00 | 0.00 | 50 | 1020.9 |
| 20260503004540 | 73 | 71 | 0.0 | 0.0 | 0.00 | 0.00 | 0.00 | 48 | 1020.7 |
| 20260503004012 | 74 | 71 | 0.0 | 0.0 | 0.00 | 0.00 | 0.00 | 48 | 1020.7 |
| 20260503003551 | 74 | 71 | 0.0 | 0.0 | 0.00 | 0.00 | 0.00 | 46 | 1020.7 |
| 20260503003036 | 75 | 71 | 0.0 | 0.0 | 0.00 | 0.00 | 0.00 | 45 | 1020.8 |
| 20260503002514 | 75 | 71 | 0.0 | 0.0 | 0.00 | 0.00 | 0.00 | 44 | 1020.8 |
| 20260503002051 | 75 | 71 | 0.9 | 0.0 | 0.00 | 0.00 | 0.00 | 42 | 1020.7 |
| 20260503001554 | 76 | 71 | 0.9 | 0.0 | 0.00 | 0.00 | 0.00 | 41 | 1020.7 |
| 20260503001024 | 76 | 71 | 0.9 | 0.0 | 0.00 | 0.00 | 0.00 | 41 | 1020.7 |
| 20260503000601 | 76 | 71 | 0.9 | 0.0 | 0.00 | 0.00 | 0.00 | 40 | 1020.7 |
| 20260502235523 | 77 | 71 | 0.9 | 0.0 | 0.00 | 0.00 | 0.00 | 39 | 1020.6 |
| 20260502235103 | 77 | 71 | 0.9 | 0.0 | 0.00 | 0.00 | 0.00 | 39 | 1020.6 |
| 20260502234553 | 77 | 71 | 0.9 | 0.0 | 0.00 | 0.00 | 0.00 | 38 | 1020.6 |
| 20260502234029 | 77 | 69 | 0.9 | 0.0 | 0.00 | 0.00 | 0.00 | 40 | 1020.7 |
| 20260502233605 | 77 | 69 | 0.9 | 0.0 | 0.00 | 0.00 | 0.00 | 38 | 1020.5 |
| 20260502233009 | 77 | 69 | 1.7 | 0.0 | 0.00 | 0.00 | 0.00 | 39 | 1020.6 |
| 20260502232544 | 77 | 69 | 1.7 | 0.0 | 0.00 | 0.00 | 0.00 | 37 | 1020.6 |
| 20260502232023 | 78 | 71 | 0.9 | 0.0 | 0.00 | 0.00 | 0.00 | 37 | 1020.6 |
| 20260502231528 | 77 | 69 | 0.9 | 0.0 | 0.00 | 0.00 | 0.00 | 38 | 1020.6 |
| 20260502231002 | 77 | 69 | 1.7 | 0.0 | 0.00 | 0.00 | 0.00 | 36 | 1020.6 |
| 20260502230539 | 77 | 68 | 1.7 | 0.0 | 0.00 | 0.00 | 0.00 | 40 | 1020.6 |
| 20260502230042 | 77 | 67 | 0.9 | 0.0 | 0.00 | 0.00 | 0.00 | 39 | 1020.6 |
| 20260502225516 | 76 | 67 | 0.9 | 0.0 | 0.00 | 0.00 | 0.00 | 40 | 1020.6 |
| 20260502225050 | 76 | 67 | 0.9 | 0.0 | 0.00 | 0.00 | 0.00 | 40 | 1020.6 |
| 20260502224557 | 76 | 67 | 0.9 | 0.0 | 0.00 | 0.00 | 0.00 | 42 | 1020.6 |
| 20260502224026 | 77 | 71 | 0.9 | 0.0 | 0.00 | 0.00 | 0.00 | 41 | 1020.5 |
| 20260502223606 | 77 | 71 | 0.9 | 0.0 | 0.00 | 0.00 | 0.00 | 41 | 1020.6 |
| 20260502223009 | 77 | 71 | 0.9 | 0.0 | 0.00 | 0.00 | 0.00 | 40 | 1020.7 |
| 20260502222547 | 77 | 69 | 0.9 | 0.0 | 0.00 | 0.00 | 0.00 | 38 | 1020.7 |
| 20260502222014 | 77 | 62 | 0.9 | 0.0 | 0.00 | 0.00 | 0.00 | 40 | 1020.8 |
| 20260502221519 | 77 | 62 | 1.7 | 0.0 | 0.00 | 0.00 | 0.00 | 40 | 1020.8 |
| 20260502221058 | 77 | 75 | 1.7 | 0.0 | 0.00 | 0.00 | 0.00 | 42 | 1020.8 |
| 20260502220528 | 76 | 64 | 0.9 | 0.0 | 0.00 | 0.00 | 0.00 | 41 | 1020.8 |
| 20260502220031 | 76 | 75 | 0.9 | 0.0 | 0.00 | 0.00 | 0.00 | 41 | 1020.8 |
| 20260502215505 | 76 | 76 | 1.7 | 0.0 | 0.00 | 0.00 | 0.00 | 42 | 1020.8 |
| 20260502215038 | 76 | 54 | 0.9 | 0.0 | 0.00 | 0.00 | 0.00 | 43 | 1020.8 |
| 20260502214552 | 77 | 36 | 0.9 | 0.0 | 0.00 | 0.00 | 0.00 | 43 | 1020.9 |
| 20260502214025 | 77 | 344 | 0.9 | 0.0 | 0.00 | 0.00 | 0.00 | 43 | 1021.0 |
| 20260502213502 | 77 | 63 | 1.7 | 0.0 | 0.00 | 0.00 | 0.00 | 43 | 1021.1 |
| 20260502213057 | 78 | 42 | 1.7 | 0.0 | 0.00 | 0.00 | 0.00 | 44 | 1021.1 |
| 20260502212532 | 77 | 74 | 1.7 | 0.0 | 0.00 | 0.00 | 0.00 | 44 | 1021.2 |
| 20260502212003 | 77 | 70 | 1.7 | 0.0 | 0.00 | 0.00 | 0.00 | 45 | 1021.3 |
| 20260502211558 | 77 | 300 | 1.7 | 0.0 | 0.00 | 0.00 | 0.00 | 42 | 1021.3 |
| 20260502211026 | 77 | 51 | 1.7 | 0.0 | 0.00 | 0.00 | 0.00 | 43 | 1021.5 |
| 20260502210605 | 77 | 79 | 1.7 | 0.0 | 0.00 | 0.00 | 0.00 | 45 | 1021.5 |
| 20260502210054 | 77 | 73 | 1.7 | 0.0 | 0.00 | 0.00 | 0.00 | 43 | 1021.6 |
| 20260502205523 | 77 | 65 | 1.7 | 0.0 | 0.00 | 0.00 | 0.00 | 42 | 1021.8 |
| 20260502205102 | 77 | 337 | 1.7 | 0.0 | 0.00 | 0.00 | 0.00 | 43 | 1021.8 |
| 20260502204617 | 77 | 84 | 1.7 | 0.0 | 0.00 | 0.00 | 0.00 | 42 | 1021.8 |
| 20260502204034 | 76 | 65 | 1.7 | 0.0 | 0.00 | 0.00 | 0.00 | 45 | 1022.0 |
| 20260502203507 | 76 | 331 | 1.7 | 0.0 | 0.00 | 0.00 | 0.00 | 43 | 1022.0 |
| 20260502203018 | 76 | 340 | 1.7 | 0.0 | 0.00 | 0.00 | 0.00 | 43 | 1022.0 |
| 20260502202551 | 75 | 161 | 1.7 | 0.0 | 0.00 | 0.00 | 0.00 | 45 | 1022.0 |
| 20260502202022 | 75 | 344 | 1.7 | 0.0 | 0.00 | 0.00 | 0.00 | 44 | 1022.0 |
| 20260502201525 | 76 | 340 | 1.7 | 0.0 | 0.00 | 0.00 | 0.00 | 41 | 1022.1 |
| 20260502201105 | 77 | 67 | 1.7 | 0.0 | 0.00 | 0.00 | 0.00 | 41 | 1022.1 |
| 20260502200534 | 76 | 28 | 1.7 | 0.0 | 0.00 | 0.00 | 0.00 | 44 | 1022.1 |
| 20260502200044 | 76 | 128 | 1.7 | 0.0 | 0.00 | 0.00 | 0.00 | 45 | 1022.1 |
| 20260502195517 | 75 | 81 | 2.6 | 0.0 | 0.00 | 0.00 | 0.00 | 43 | 1022.0 |
| 20260502195050 | 74 | 360 | 2.6 | 0.0 | 0.00 | 0.00 | 0.00 | 43 | 1022.2 |
| 20260502194538 | 74 | 81 | 1.7 | 0.0 | 0.00 | 0.00 | 0.00 | 43 | 1022.1 |
| 20260502194014 | 74 | 315 | 1.7 | 0.0 | 0.00 | 0.00 | 0.00 | 43 | 1022.2 |
| 20260502193547 | 75 | 355 | 1.7 | 0.0 | 0.00 | 0.00 | 0.00 | 46 | 1022.3 |
| 20260502193036 | 75 | 355 | 2.6 | 0.0 | 0.00 | 0.00 | 0.00 | 44 | 1022.3 |